Weather in Kairovka

Russia / Orenburg Oblast     51°47′10″N   56°32′16″E
temp.,
°C
wind,
m/s
gust,
m/s
humid.,
%
clouds,
%
prec.,
mm/h
press.,
hPa
HPBL,
m
26 february, fri
fri2623:00−26sse339760 0.0 103368
02:00−25sse3695100 0.0 1031183
05:00−24se3697100 0.1 1029210
08:00−24ese369694 0.1 1027157
11:00−20se479596 0.2 1026314
14:00−17se699198 0.1 1025460
17:00−15se589199 0.1 1024502
20:00−16se5119390 0.1 1023350
27 february, sat
sat2723:00−17ese5109385 0.1 1022232
02:00−17se6129388 0.0 1019323
05:00−16se7139294 0.1 1016383
08:00−14se81594100 1.4 1011446
11:00−8sse71394100 4.8 1007638
14:00−4sse61095100 1.1 1005522
17:000s37100100 2.5 1003290
20:000wsw5996100 0.3 1003500
28 february, sun
sun2823:000sw5998100 0.8 1003470
02:000sw5998100 0.6 1002493
05:00−1sw4897100 1.3 1001322
08:00−2ssw3897100 0.7 1001290
11:00−1ssw5897100 1.6 1001526
14:00−2w7996100 1.7 1002552
17:00−8wsw5893100 2.4 1004522
20:00−13sw349790 0.1 100751
1 march, mon
mon123:00−12ssw349695 0.2 101085
02:00−13ssw3497100 0.1 1011105
05:00−14ssw3396100 0.4 101372
08:00−14s239694 0.2 101568
11:00−12ssw349494 0.3 1016242
14:00−10wsw239099 0.1 1017404
17:00−9wsw349399 0.3 1018405
20:00−12wnw339695 0.2 101966
2 march, tue
tue223:00−15w339794 0.3 102173
02:00−18w239996 0.1 102147
05:00−22w2210097 0.1 102120
08:00−23wsw12100100 0.1 102120
11:00−21sw2398100 0.1 1020211
14:00−18ssw3595100 0.0 1019329
17:00−17ssw4795100 0.1 1017348
20:00−17s4996100 0.1 1015357